This is the latest recevied weather packets stored in our database for station/object KC1IUC-15. If no packets are shown the sender has not sent any weather packets the latest 10 day(s).
| Time | Temp. | Humidity | Pressure | Rain* | Wind** | Luminosity | Snow |
|---|---|---|---|---|---|---|---|
| 1787779504 | 26.11° C | 54% | 1016.1 hPa | 0 mm | - | 76 W/m² | - |
| 1787779204 | 26.67° C | 54% | 1015.7 hPa | 0 mm | - | 64 W/m² | - |
| 1787778904 | 26.67° C | 54% | 1016.1 hPa | 0 mm | - | 71 W/m² | - |
| 1787778604 | 26.67° C | 55% | 1016.1 hPa | 0 mm | - | 109 W/m² | - |
| 1787778304 | 26.67° C | 55% | 1015.7 hPa | 0 mm | - | 83 W/m² | - |
| 1787778006 | 26.67° C | 54% | 1016.1 hPa | 0 mm | - | 79 W/m² | - |
| 1787777704 | 26.67° C | 52% | 1016.1 hPa | 0 mm | - | 117 W/m² | - |
| 1787777404 | 26.11° C | 54% | 1016.1 hPa | 0 mm | - | 410 W/m² | - |
| 1787777104 | 26.67° C | 55% | 1016.1 hPa | 0 mm | - | 201 W/m² | - |
| 1787776804 | 26.67° C | 56% | 1016.1 hPa | 0 mm | - | 142 W/m² | - |
| 1787776504 | 27.22° C | 54% | 1016.1 hPa | 0 mm | - | 124 W/m² | - |
| 1787776204 | 26.67° C | 54% | 1016.1 hPa | 0 mm | - | 158 W/m² | - |
| 1787775904 | 26.11° C | 53% | 1016.1 hPa | 0 mm | - | 378 W/m² | - |
| 1787775604 | 26.67° C | 53% | 1015.7 hPa | 0 mm | - | 157 W/m² | - |
| 1787775304 | 27.22° C | 52% | 1016.1 hPa | 0 mm | - | 217 W/m² | - |
| 1787775004 | 26.67° C | 53% | 1016.4 hPa | 0 mm | - | 361 W/m² | - |
| 1787774704 | 27.78° C | 51% | 1016.1 hPa | 0 mm | - | 162 W/m² | - |
| 1787774407 | 28.33° C | 50% | 1016.1 hPa | 0 mm | - | 133 W/m² | - |
| 1787774104 | 27.78° C | 50% | 1016.1 hPa | 0 mm | - | 126 W/m² | - |
| 1787773804 | 27.22° C | 51% | 1016.1 hPa | 0 mm | - | 596 W/m² | - |
| 1787773504 | 26.67° C | 52% | 1016.1 hPa | 0 mm | - | 543 W/m² | - |
| 1787773204 | 27.78° C | 49% | 1016.4 hPa | 0 mm | - | 182 W/m² | - |
| 1787772904 | 28.33° C | 47% | 1016.4 hPa | 0 mm | - | 155 W/m² | - |
| 1787772604 | 27.22° C | 47% | 1016.1 hPa | 0 mm | - | 605 W/m² | - |
| 1787772304 | 26.11° C | 49% | 1016.1 hPa | 0 mm | - | 597 W/m² | - |
* Rain latest hour (hover to see other rain measurements)
** Current wind speed in m/s (hover to see current wind gust speed)